Lewisburg, WV

2:51 PM EDT on September 22, 2019 (GMT -0400)
Greenbrier Valley

Weather History for KLWB - August, 2019

Change the Weather History Date:

Thursday, August 22, 2019

  Actual Average Record
Temperature  
Mean Temperature 76 °F -  
Max Temperature 86 °F 81 °F 92 °F (1987)
Min Temperature 67 °F 57 °F 46 °F (1982)
Cooling Degree Days 12    
Growing Degree Days 26 (Base 50)    
Moisture  
Dew Point 67 °F    
Average Humidity 76    
Maximum Humidity 99    
Minimum Humidity 45    
Precipitation  
Precipitation 0.01 in - - ()
Sea Level Pressure  
Sea Level Pressure 30.08 in    
Wind  
Wind Speed 5 mph (West)    
Max Wind Speed 14 mph    
Max Gust Speed 20 mph    
Visibility 10 miles    
Events Rain , Thunderstorm    
Averages and records for this station are not official NWS values.
T = Trace of Precipitation, MM = Missing Value Source: NWS Daily Summary

Daily Weather History Graph

Daily Weather History Graph

Search for Another Location

Airport or City:

Astronomy

Aug. 22, 2019 Rise Set
Actual Time 6:42 AM EDT 8:05 PM EDT
Civil Twilight 6:15 AM EDT 8:33 PM EDT
Nautical Twilight 5:42 AM EDT 9:05 PM EDT
Astronomical Twilight 5:07 AM EDT 9:40 PM EDT
Moon No Moon Rise 1:09 PM EDT
Length of Visible Light 14h 17m
Length of Day
13h 22m
Waning Gibbous, 60% of the Moon is Illuminated
Aug 22
Waning Gibbous
Aug 23
Last Quarter
Aug 30
New
Sep 5
First Quarter
Sep 14
Full

Hourly Weather History & Observations

Time (EDT) Temp. Heat Index Dew Point Humidity Pressure Visibility Wind Dir Wind Speed Gust Speed Precip Events Conditions
8:48 AM - - - N/A% 30.09 in 10.0 mi SW 5.8 mph - N/A   Clear
9:59 AM - - - N/A% 30.10 in 10.0 mi WSW 6.9 mph - N/A   Scattered Clouds
10:40 AM 80.6 °F 83.9 °F 69.8 °F 70% 30.11 in - WSW 8.1 mph - N/A   Unknown
10:55 AM - - - N/A% 30.10 in - West 5.8 mph - N/A   Unknown
10:59 AM - - - N/A% 30.10 in 10.0 mi WSW 6.9 mph - N/A   Scattered Clouds
11:15 AM 80.6 °F 83.9 °F 69.8 °F 70% 30.10 in 10.0 mi WSW 8.1 mph - N/A   Mostly Cloudy
11:35 AM 80.6 °F 83.9 °F 69.8 °F 70% 30.10 in 10.0 mi WNW 3.5 mph - N/A   Unknown
11:54 AM 82.4 °F 86.3 °F 69.8 °F 66% 30.10 in 10.0 mi West 6.9 mph - N/A   Overcast
12:15 PM 82.4 °F 86.3 °F 69.8 °F 66% 30.10 in 10.0 mi WNW 5.8 mph - N/A   Overcast
12:34 PM 82.4 °F 86.3 °F 69.8 °F 66% 30.10 in 7.0 mi NNW 4.6 mph - N/A   Mostly Cloudy
12:54 PM 84.2 °F 86.6 °F 66.2 °F 55% 30.09 in 10.0 mi North 5.8 mph - N/A   Scattered Clouds
1:14 PM 84.2 °F 86.6 °F 66.2 °F 55% 30.08 in 10.0 mi WNW 4.6 mph - N/A   Scattered Clouds
1:35 PM 84.2 °F 85.6 °F 64.4 °F 51% 30.08 in 10.0 mi WNW 6.9 mph - N/A Thunderstorm Scattered Clouds
2:12 PM 86.0 °F 86.6 °F 62.6 °F 45% 30.07 in - West 4.6 mph - N/A   Unknown
2:35 PM 85.8 °F 86.8 °F 63.7 °F 47% 30.07 in 10.0 mi NW 8.1 mph - N/A   Unknown
2:55 PM 85.3 °F 86.6 °F 64.4 °F 49% 30.06 in 10.0 mi WNW 4.6 mph - N/A   Mostly Cloudy
3:15 PM 85.8 °F 87.1 °F 64.0 °F 48% 30.04 in 10.0 mi WNW 8.1 mph - N/A   Mostly Cloudy
3:35 PM 85.5 °F 86.6 °F 63.9 °F 48% 30.03 in 10.0 mi NW 8.1 mph - N/A   Scattered Clouds
3:55 PM 85.3 °F 86.4 °F 63.7 °F 48% 30.03 in 10.0 mi NW 5.8 mph - N/A   Scattered Clouds
4:15 PM 85.5 °F 86.6 °F 63.7 °F 48% 30.04 in - West 5.8 mph - N/A   Scattered Clouds
4:35 PM - - - N/A% - 10.0 mi North - - N/A   Scattered Clouds
4:55 PM 82.8 °F 84.0 °F 63.7 °F 52% 30.05 in 10.0 mi West 5.8 mph - N/A Thunderstorm Clear
5:15 PM 81.5 °F 83.1 °F 64.6 °F 56% 30.07 in 10.0 mi WSW 13.8 mph 19.6 mph N/A   Mostly Cloudy
5:35 PM 71.8 °F - 68.0 °F 88% 30.08 in 7.0 mi SSW 6.9 mph - N/A Rain Rain
5:55 PM 69.8 °F - 68.2 °F 95% 30.07 in 7.0 mi Calm Calm - 0.01 in Rain Light Rain
6:15 PM 69.8 °F - 68.4 °F 95% 30.07 in 10.0 mi Calm Calm - N/A   Scattered Clouds
6:35 PM 70.7 °F - 68.4 °F 92% 30.06 in 10.0 mi SW 4.6 mph - N/A   Scattered Clouds
6:55 PM 72.3 °F - 68.7 °F 88% 30.06 in 10.0 mi SW 4.6 mph - N/A   Clear
7:15 PM 72.1 °F - 68.9 °F 89% 30.07 in 10.0 mi SW 3.5 mph - N/A   Clear
7:30 PM 71.6 °F - 68.7 °F 91% 30.06 in 10.0 mi SW 3.5 mph - N/A   Clear
7:55 PM 70.9 °F - 68.4 °F 92% 30.07 in 10.0 mi WSW 4.6 mph - N/A   Clear
8:15 PM 70.0 °F - 68.4 °F 95% 30.08 in 10.0 mi SW 4.6 mph - N/A   Clear
8:35 PM 69.3 °F - 68.2 °F 96% 30.08 in 10.0 mi SW 4.6 mph - N/A   Scattered Clouds
8:55 PM 69.1 °F - 68.0 °F 96% 30.08 in 10.0 mi Calm Calm - N/A   Scattered Clouds
9:15 PM 69.3 °F - 68.0 °F 96% 30.07 in 10.0 mi Calm Calm - N/A   Clear
9:35 PM 68.0 °F - 67.5 °F 98% 30.08 in 10.0 mi Calm Calm - N/A   Clear
9:55 PM 68.0 °F - 67.3 °F 98% 30.09 in 10.0 mi Calm Calm - N/A   Clear
10:15 PM 68.7 °F - 67.5 °F 96% 30.09 in 10.0 mi Calm Calm - N/A   Clear
10:35 PM 67.6 °F - 67.1 °F 98% 30.09 in 10.0 mi Calm Calm - N/A   Clear
10:55 PM 67.3 °F - 66.9 °F 99% 30.09 in 10.0 mi Calm Calm - N/A   Scattered Clouds
11:15 PM 68.0 °F - 67.1 °F 97% 30.08 in 10.0 mi Calm Calm - N/A   Scattered Clouds
11:35 PM 67.1 °F - 66.4 °F 98% 30.09 in 10.0 mi Calm Calm - N/A   Clear
11:55 PM 67.3 °F - 66.7 °F 98% 30.09 in 10.0 mi Calm Calm - N/A   Clear